Weather History for Fort Sevcenko, Kazakhstan

Change the Weather History Date:

Saturday, February 16, 2013

  Actual Average Record
Temperature  
Mean Temperature 38 °F -  
Max Temperature 42 °F - - ()
Min Temperature 35 °F - - ()
Degree Days  
Heating Degree Days 26    
Moisture  
Dew Point 23 °F    
Average Humidity 52    
Maximum Humidity 84    
Minimum Humidity 19    
Precipitation  
Precipitation 0.01 in 0.02 in - ()
Sea Level Pressure  
Sea Level Pressure 29.79 in    
Wind  
Wind Speed 19 mph ()    
Max Wind Speed 31 mph    
Max Gust Speed 40 mph    
Visibility 6.0 miles    
Events Rain    
T = Trace of Precipitation, MM = Missing Value Source: Averaged Metar Reports

Daily Weather History Graph

Daily Weather History Graph

Search for Another Location

Airport:

Trip Planner

Search our weather history database for the weather conditions in past years. The results will help you decide how hot, cold, wet, or windy it might be!

Date:

Astronomy

Feb. 16, 2013 Rise Set
Actual Time 8:33 AM AQTT 7:06 PM AQTT
Civil Twilight 8:03 AM AQTT 7:36 PM AQTT
Nautical Twilight 7:30 AM AQTT 8:09 PM AQTT
Astronomical Twilight 6:56 AM AQTT 8:43 PM AQTT
Moon 11:17 AM AQTT (2/16) 12:57 AM AQTT (2/16)
Length of Visible Light 11h 32m
Length of Day
10h 33m
Waxing Crescent, 35% of the Moon is Illuminated
Feb 16
Waxing Crescent
Feb 18
First Quarter
Feb 26
Full
Mar 5
Last Quarter
Mar 12
New

Hourly Weather History & Observations

Time (AQTT) Temp. Windchill Dew Point Humidity Pressure Visibility Wind Dir Wind Speed Gust Speed Precip Events Conditions
12:00 AM 39.2 °F 28.4 °F 12.2 °F 33% 29.95 in - ESE 24.6 mph 38.0 mph N/A   Clear
12:30 AM 39.2 °F 28.4 °F 14.0 °F 36% 29.95 in - ESE 24.6 mph 38.0 mph N/A   Clear
1:00 AM 39.2 °F 28.9 °F 14.0 °F 36% 29.95 in - ESE 22.4 mph 33.6 mph N/A   Clear
1:30 AM 39.2 °F 28.0 °F 14.0 °F 36% 29.92 in - ESE 26.8 mph 40.3 mph N/A   Clear
2:00 AM 41 °F - 13 °F 19% 29.90 in 6 mi NE 31.3 mph - -   Clear
2:00 AM 37.4 °F 26.0 °F 14.0 °F 38% 29.92 in - ESE 24.6 mph 35.8 mph N/A   Clear
2:30 AM 37.4 °F 26.0 °F 15.8 °F 41% 29.92 in - ESE 24.6 mph 35.8 mph N/A   Clear
3:00 AM 37.4 °F 26.0 °F 15.8 °F 41% 29.89 in - ESE 24.6 mph 35.8 mph N/A   Clear
3:30 AM 37.4 °F 26.0 °F 14.0 °F 38% 29.89 in - ESE 24.6 mph 35.8 mph N/A   Clear
4:00 AM 37.4 °F 26.0 °F 15.8 °F 41% 29.86 in - ESE 24.6 mph 35.8 mph N/A   Clear
4:30 AM 37.4 °F 26.0 °F 15.8 °F 41% 29.86 in - ESE 24.6 mph 35.8 mph N/A   Clear
5:00 AM 39 °F - 14 °F 22% 29.85 in 6 mi NE 31.3 mph - -   Clear
5:00 AM 37.4 °F 27.0 °F 15.8 °F 41% 29.86 in - SE 20.1 mph 31.3 mph N/A   Clear
5:30 AM 37.4 °F 27.0 °F 15.8 °F 41% 29.83 in - SE 20.1 mph 31.3 mph N/A   Clear
6:00 AM 37.4 °F 27.0 °F 15.8 °F 41% 29.83 in - SE 20.1 mph 31.3 mph N/A   Clear
6:30 AM 35.6 °F 24.7 °F 15.8 °F 44% 29.83 in - SE 20.1 mph 31.3 mph N/A   Clear
7:00 AM 35.6 °F 24.7 °F 15.8 °F 44% 29.83 in - ESE 20.1 mph - N/A   Clear
7:30 AM 35.6 °F 24.7 °F 15.8 °F 44% 29.83 in - ESE 20.1 mph - N/A   Clear
8:00 AM 40 °F - 15 °F 23% 29.80 in 6 mi NE 31.3 mph - -   Clear
8:00 AM 37.4 °F 27.0 °F 15.8 °F 41% 29.83 in - ESE 20.1 mph - N/A   Clear
8:30 AM 35.6 °F 24.7 °F 15.8 °F 44% 29.83 in - ESE 20.1 mph - N/A   Clear
9:00 AM 35.6 °F 25.3 °F 15.8 °F 44% 29.83 in - East 17.9 mph - N/A   Clear
9:30 AM 35.6 °F 24.1 °F 15.8 °F 44% 29.83 in - East 22.4 mph - N/A   Clear
10:00 AM 37.4 °F 26.5 °F 15.8 °F 41% 29.83 in - East 22.4 mph - N/A   Clear
10:30 AM 37.4 °F 26.5 °F 15.8 °F 41% 29.80 in 6.2 mi ESE 22.4 mph - N/A   Overcast
11:00 AM 40 °F - 14 °F 22% 29.78 in 6 mi NE 26.8 mph - -   Overcast
11:00 AM 35.6 °F 23.1 °F 24.8 °F 65% 29.77 in 6.2 mi ESE 26.8 mph - N/A Rain Light Rain Showers
11:30 AM 37.4 °F 26.5 °F 24.8 °F 60% 29.77 in 6.2 mi ESE 22.4 mph - N/A   Mostly Cloudy
12:00 PM 39.2 °F 28.4 °F 23.0 °F 52% 29.74 in 6.2 mi ESE 24.6 mph - N/A   Overcast
12:30 PM 41.0 °F 30.8 °F 21.2 °F 45% 29.74 in 6.2 mi ESE 24.6 mph - N/A   Overcast
1:00 PM 41.0 °F 31.3 °F 23.0 °F 49% 29.74 in - ESE 22.4 mph - N/A   Clear
1:30 PM 41.0 °F 30.8 °F 21.2 °F 45% 29.74 in 6.2 mi ESE 24.6 mph - N/A   Mostly Cloudy
2:00 PM 40 °F - 24 °F 41% 29.75 in 6 mi ENE 17.9 mph - -   Overcast
2:00 PM 42.8 °F 33.7 °F 21.2 °F 42% 29.74 in 6.2 mi SE 22.4 mph - N/A   Mostly Cloudy
2:30 PM 42.8 °F 34.7 °F 23.0 °F 46% 29.71 in 6.2 mi ESE 17.9 mph - N/A   Mostly Cloudy
3:00 PM 42.8 °F 35.2 °F 28.4 °F 57% 29.71 in 6.2 mi ESE 15.7 mph - N/A Rain Light Rain Showers
3:30 PM 41.0 °F 33.6 °F 28.4 °F 61% 29.71 in 6.2 mi ESE 13.4 mph - N/A Rain Light Rain Showers
4:00 PM 41.0 °F 33.6 °F 32.0 °F 70% 29.71 in 6.2 mi ESE 13.4 mph - N/A   Mostly Cloudy
4:30 PM 41.0 °F 33.6 °F 33.8 °F 76% 29.71 in 6.2 mi ESE 13.4 mph - N/A   Overcast
5:00 PM - - - %  in 0 mi SE 217.0 mph - -   Clear
5:00 PM 42.8 °F 35.9 °F 32.0 °F 66% 29.71 in 6.2 mi ESE 13.4 mph - N/A   Overcast
5:30 PM 42.8 °F 37.6 °F 32.0 °F 66% 29.71 in 6.2 mi ESE 8.9 mph - N/A   Overcast
6:00 PM 42.8 °F 36.7 °F 33.8 °F 70% 29.71 in 6.2 mi East 11.2 mph - N/A   Overcast
6:30 PM 42.8 °F 37.6 °F 32.0 °F 66% 29.71 in 6.2 mi East 8.9 mph - N/A   Overcast
7:00 PM 42.8 °F 38.7 °F 32.0 °F 66% 29.71 in 6.2 mi East 6.7 mph - N/A   Overcast
7:30 PM 42.8 °F 40.2 °F 32.0 °F 66% 29.71 in 6.2 mi East 4.5 mph - N/A   Overcast
8:00 PM 35 °F - 31 °F 81% 29.75 in 6 mi East 8.9 mph - - Rain Light Rain
8:00 PM 41.0 °F 36.5 °F 32.0 °F 70% 29.71 in 6.2 mi ESE 6.7 mph - N/A   Overcast
8:30 PM 41.0 °F - 32.0 °F 70% 29.71 in 6.2 mi Calm Calm - N/A   Overcast
9:00 PM 41.0 °F - 33.8 °F 76% 29.71 in 6.2 mi NNW 2.2 mph - N/A   Overcast
9:30 PM 41.0 °F 36.5 °F 33.8 °F 76% 29.71 in 6.2 mi North 6.7 mph - N/A   Overcast
10:00 PM 41.0 °F 36.5 °F 33.8 °F 76% 29.71 in 6.2 mi North 6.7 mph - N/A   Overcast
10:30 PM 41.0 °F 36.5 °F 33.8 °F 76% 29.74 in 6.2 mi North 6.7 mph - N/A   Overcast
11:00 PM 36 °F - 33 °F 84% 29.77 in 6 mi NE 4.5 mph - - Rain Light Rain
11:00 PM 41.0 °F 35.4 °F 33.8 °F 76% 29.74 in 6.2 mi North 8.9 mph - N/A   Overcast
11:30 PM 41.0 °F 36.5 °F 33.8 °F 76% 29.74 in 6.2 mi North 6.7 mph - N/A   Overcast